SCP
0 0 0 0 0 0 0 0 0 0 0 0 0 0 0 0 0 0 0 0 0 0 0 0 0 0 0 0 0 0 0 0 0 0 0 0 0 0 0 0 0 0 0
0 0 0 0 0 0 0 0 0 0 0 0 0 0 0 0 0 0 0 0 0 0 0 0 0 0 0 0 0 0 0 0 0 0 0 0 0 0 0 0 0 0 0
0 0 0 0 0 0 0 0 0 0 0 0 0 0 0 0 0 0 0 0 0 0 0 0 0 0 0 0 0 0 0 0 0 0 0 0 0 0 0 0 0 0 0
0 0 0 0 0 0 0 0 0 0 0 0 0 0 0 0 0 0 0 0 0 0 0 0 0 0 0 0 0 0 0 0 0 0 0 0 0 0 0 0 0 0 0
0 0 0 0 0 0 0 0 0 0 0 0 0 0 0 0 0 0 0 0 0 0 0 0 0 0 0 0 0 0 0 0 0 0 0 0 0 0 0 0 0 0 0
0 0 0 0 0 0 0 0 0 0 0 0 0 0 0 0 0 0 0 0 0 0 0 0 0 0 0 0 0 0 0 0 0 0 0 0 0 0 0 0 0 0 0
0 0 0 -0 -0 0 0 0 0 0 0 0 0 0 0 0 0 0 0 0 0 0 0 0 0 0 0 0 0 -0 -0 0 0 0 0 0 0 0 0 0 0 0 0
0 0 0 0 0 0 0 0 0 0 0 0 0 0 0 0 0 0 0 0 0 0 0 0 0 -0 0 0 0 0 0 0 0 0 0 0 0 0 0 0 0 -0 -0
0 0 0 0 -0 0 0 0 0 0 0 0 0 0 0 0 0 0 0 0 -0 -0 0 0 0 -0 -0 -0 0 0 0 0 0 0 0 0 0 0 0 -0 -0 -0 -0
0 0 0 0 -0 0 0 0 0 0 0 0 0 0 0 0 0 0 0 0 -0 -0 0 0 -0 -0 -0 -0 0 0 0 0 0 0 0 0 0 0 0 -0 -0 0 0
0 0 0 0 0 0 0 0 0 0 0 0 0 0 0 0 0 0 0 0 -0 -0 0 0 0 -0 -0 -0 0 0 0 0 0 0 0 0 0 0 -0 -0 -0 0 0
0 0 0 0 0 0 0 0 0 0 0 0 0 0 0 0 0 0 0 -0 -0 -0 -0 -0 -0 -0 -0 0 0 0 0 0 0 0 0 0 0 0 0 -0 0 0 0
0 0 0 0 0 0 0 0 0 0 0 0 0 0 0 0 0 0 -0 -0 -0 -0 -0 -0 -0 -0 0 0 0 0 0 0 0 0 0 0 0 0 0 0 0 0 0
0 0 0 0 0 0 0 0 0 0 0 0 0 0 0 0 0 0 0 0 -0 -0 -0 0 0 0 0 0 0 0 0 0 0 0 0 0 0 0 0 0 0 0 0
0 0 0 0 0 -0 0 0 0 0 0 0 0 0 0 0 0 0 0 0 -0 -0 -0 -0 0 0 0 0 0 0 0 0 0 0 0 0 0 0 0 0 0 0 0
0 0 0 0 0 0 0 0 0 0 0 0 0 0 0 0 0 0 0 -0 -0 -0 -0 0 0 -0 0 0 0 0 0 0 0 0 0 0 0 0 0 0 0 0 0
0 0 0 0 0 0 0 0 0 0 0 0 0 0 0 0 0 0 0 0 0 0 -0 -0 0 0 0 0 0 0 0 0 0 0 0 0 0 0 0 0 0 -0 0
0 0 0 0 0 0 0 0 0 0 0 0 0 0 0 0 0 0 0 0 0 0 -0 -0 -0 -0 0 0 0 0 0 0 0 0 0 0 0 0 0 0 0 0 0
0 0 0 0 0 0 0 0 0 0 0 0 0 0 0 0 0 0 0 0 0 0 0 -0 -0 -0 -0 -0 -0 -0 -0 0 0 0 0 0 0 0 0 0 0 0 0
0 0 0 0 0 0 0 0 0 0 0 0 0 0 0 0 0 0 0 0 0 0 0 0 -0 -0 -0 -0 -0 -0 0 -0 -0 -0 0 0 0 0 0 0 -0 -0 0
0 0 0 0 0 0 0 0 0 0 0 0 0 0 0 0 0 0 0 0 0 0 0 0 0 -0 -0 -0 -0 -0 -0 -0 0 0 -0 0 0 0 0 0 0 0 0
0 0 0 0 0 0 0 0 0 0 0 0 0 0 0 0 0 0 0 0 0 0 0 0 0 0 -0 -0 -0 -0 -0 -0 -0 -0 -0 -0 -0 -0 0 0 0 0 0
0 0 0 0 0 0 0 0 0 0 0 0 0 0 0 0 0 0 0 0 0 0 0 0 0 0 0 0 0 -0 0 -0 -0 -0 0 0 -0 0 0 0 0 0 0
-0 0 0 0 0 0 0 0 0 0 0 0 0 0 0 0 0 0 0 0 0 0 0 0 0 0 0 0 0 0 0 0 0 0 0 0 0 0 0 0 0 0 0
-0 0 0 0 0 0 0 0 0 0 0 0 0 0 0 0 0 0 0 0 0 0 0 0 0 0 0 0 0 0 0 0 0 0 0 0 0 0 0 0 0 0 0
0 0 0 0 0 0 0 0 0 0 0 0 0 0 0 0 0 0 0 0 0 0 0 0 0 0 0 0 0 0 0 0 0 0 0 0 0 0 0 0 0 0 0
Wind_Speed_500mb
53 62 61 56 53 53 51 48 47 52 53 52 50 49 49 48 48 46 47 45 42 40 37 36 39 41 46 47 50 53 59 62 82 91 75 76 83 82 77 78 77 70 70
45 55 64 72 63 64 62 58 56 57 58 54 51 49 48 46 44 42 42 39 38 35 33 36 42 44 47 49 52 55 60 60 70 92 83 85 82 78 78 77 79 61 62
52 52 54 65 77 80 74 69 65 66 63 58 52 48 47 44 42 38 38 36 34 33 36 40 43 45 49 51 51 56 58 58 65 77 87 80 75 67 68 70 65 61 59
61 61 60 59 68 80 87 81 76 73 70 61 53 48 45 42 39 37 36 35 34 36 38 44 48 49 52 53 55 59 59 64 69 73 78 78 73 67 60 59 57 51 54
69 70 70 72 69 72 79 89 84 80 75 63 54 47 44 40 37 36 35 36 37 40 43 44 45 46 49 51 54 52 57 67 69 71 79 72 67 64 51 50 55 47 38
71 75 78 81 81 74 75 81 86 84 77 67 56 47 43 40 35 33 36 39 40 43 45 42 43 45 44 45 44 48 56 56 64 70 70 67 62 48 49 45 46 46 49
74 78 78 81 83 80 71 73 78 82 77 69 56 48 43 39 35 33 35 37 36 36 40 42 43 42 44 48 50 56 55 52 52 55 62 62 58 50 46 48 46 45 48
77 79 78 81 81 77 71 72 76 79 76 67 56 49 46 39 37 33 35 33 29 28 34 38 45 43 43 48 53 57 48 46 46 46 52 57 55 55 52 50 49 51 49
83 81 67 74 79 73 67 60 61 70 73 66 55 51 48 42 40 35 35 32 27 27 30 36 42 41 43 44 51 52 45 37 38 37 40 44 44 43 44 47 43 38 41
85 78 64 65 71 66 58 56 57 65 67 62 56 53 49 44 43 37 34 33 26 26 25 33 34 36 37 37 43 46 44 33 33 31 31 31 29 26 27 33 35 35 29
84 72 61 62 63 58 50 59 61 64 64 63 57 55 51 46 43 37 32 31 24 24 23 30 31 32 31 32 37 36 35 31 29 31 32 33 26 22 15 12 17 23 25
78 71 61 60 61 54 47 57 63 64 67 63 59 56 50 47 42 37 30 29 21 22 19 26 28 27 27 30 33 29 28 26 28 25 27 31 26 24 17 8 4 9 15
74 71 63 58 62 52 47 51 61 69 68 65 62 57 49 47 41 35 30 28 18 18 15 21 24 24 24 27 28 24 21 23 22 23 24 28 28 23 18 15 12 11 9
72 68 65 59 59 60 46 53 63 71 70 69 63 54 48 48 41 35 30 27 17 11 12 15 17 19 20 21 21 24 22 21 24 26 23 20 19 17 17 18 23 24 23
63 64 60 64 60 58 50 52 62 66 65 67 54 47 48 49 39 33 29 25 18 9 8 11 11 10 13 17 22 25 27 23 25 31 32 30 23 19 20 28 38 47 55
63 59 55 62 54 55 54 50 56 57 63 59 48 46 46 44 41 34 30 27 20 14 8 7 5 3 11 18 24 26 28 31 31 33 32 34 34 36 38 43 49 54 58
59 57 59 59 54 56 57 53 54 59 60 55 53 52 49 43 41 35 33 30 24 20 11 9 6 5 10 18 22 26 30 33 34 35 36 36 37 40 40 41 42 41 40
53 52 55 56 58 56 56 52 52 56 57 57 55 51 46 45 42 37 37 35 29 24 17 12 8 9 11 17 21 24 28 30 31 34 37 37 35 34 34 34 34 38 40
43 48 50 49 50 51 49 46 50 50 53 51 48 50 47 44 44 41 41 37 32 28 22 18 11 10 14 15 19 23 24 27 31 31 34 35 36 34 36 36 36 39 42
45 41 44 49 46 48 49 44 46 50 53 49 50 50 47 48 49 50 48 42 35 32 28 24 18 14 13 14 15 20 23 26 28 30 32 32 34 36 38 39 41 43 45
45 42 42 46 51 47 50 45 38 47 50 48 48 48 48 48 47 48 46 43 38 34 31 27 23 19 17 15 15 17 19 21 25 28 31 32 32 33 37 38 37 35 36
43 44 46 48 46 45 48 45 36 39 45 46 44 43 44 47 46 41 44 44 41 36 32 28 26 24 21 19 17 16 16 17 21 25 28 30 31 31 31 30 30 33 37
45 49 51 50 46 43 42 42 39 39 41 44 45 43 48 50 50 48 48 48 46 42 37 33 30 26 24 21 18 18 18 17 18 21 20 22 24 26 26 26 28 30 33
46 47 52 52 47 42 40 40 39 37 41 44 45 45 45 44 46 50 50 51 51 47 42 36 31 29 25 23 21 19 18 18 18 20 21 19 19 22 21 21 25 26 27
42 44 45 50 50 44 45 48 46 43 44 42 42 44 44 42 42 50 53 55 55 52 47 43 38 33 29 26 23 21 19 19 18 16 17 18 16 19 20 20 22 25 25
41 38 43 47 51 49 45 46 45 46 44 41 42 44 43 42 41 45 56 60 60 57 53 49 44 39 36 32 29 26 23 20 19 17 17 17 14 15 16 17 19 20 21
Wind_Direction_500mb
281 273 273 279 280 274 271 273 280 283 284 284 286 288 294 300 302 303 304 305 302 298 294 291 290 294 288 286 286 287 286 285 285 291 292 295 293 292 286 287 288 288 294
308 291 281 268 271 269 270 270 275 275 276 278 279 283 290 295 297 299 302 302 301 300 299 293 291 289 286 287 287 284 282 281 283 288 291 291 291 292 291 290 294 290 290
325 324 309 285 269 265 268 266 272 272 270 271 274 279 286 292 293 295 298 298 296 297 297 294 297 296 297 299 297 293 293 291 290 290 292 294 295 294 293 291 295 293 293
313 314 318 316 288 274 263 264 264 269 264 265 268 274 281 286 286 287 290 292 292 296 299 297 295 295 298 299 297 295 299 300 298 296 295 296 298 298 296 293 298 298 294
310 312 313 313 311 282 270 261 257 262 258 260 262 268 274 279 278 280 282 285 290 296 297 300 298 298 298 296 296 304 300 294 290 291 292 293 290 293 291 289 291 296 295
300 306 309 310 310 299 276 265 255 254 252 253 256 261 269 273 270 269 278 287 293 296 301 303 302 301 302 301 303 298 296 292 289 284 287 286 292 288 292 289 286 289 299
300 300 308 307 308 304 281 266 253 245 246 248 251 255 262 264 259 267 282 289 295 298 303 307 309 314 316 315 310 311 309 299 293 288 285 286 289 286 284 285 283 281 282
302 298 303 307 308 303 278 267 250 238 240 243 247 250 254 252 250 269 283 286 292 304 308 313 313 318 319 315 313 316 315 311 306 298 293 293 288 285 281 280 278 281 286
305 303 301 304 306 300 279 266 239 231 235 240 243 246 249 243 248 267 278 281 289 301 313 314 312 320 319 319 317 318 321 321 313 311 309 304 296 287 276 270 270 274 285
308 306 298 305 304 296 277 250 233 231 236 240 243 244 244 237 246 264 271 275 288 301 317 311 316 318 320 324 324 325 330 336 330 338 344 336 325 312 292 265 259 255 262
306 301 291 302 300 296 277 248 233 232 236 239 242 243 241 236 242 259 263 270 284 296 315 317 322 322 328 330 337 334 340 345 346 350 357 357 353 348 330 280 254 246 248
300 293 288 297 289 295 280 253 236 233 235 237 241 240 238 236 241 254 253 261 272 291 316 318 322 329 339 343 344 342 350 351 348 351 10 15 20 29 38 76 146 207 227
294 287 283 286 288 284 280 259 239 232 233 234 239 239 237 235 239 245 248 251 256 283 315 321 322 337 349 355 350 1 0 9 2 2 15 27 23 34 49 82 105 137 195
287 283 283 280 286 284 266 258 241 234 230 233 237 237 234 234 236 237 241 245 246 268 305 321 326 338 4 5 7 23 28 23 27 28 16 30 42 47 76 87 102 102 107
284 281 278 280 283 273 265 259 246 236 232 235 238 239 235 234 233 231 236 242 245 241 282 311 320 339 19 29 36 37 40 42 48 48 46 52 64 75 82 103 106 105 100
284 277 269 280 277 264 262 253 246 233 232 232 233 233 229 230 227 224 225 231 235 237 234 261 270 18 54 55 56 55 57 56 60 65 61 65 79 92 101 105 106 103 101
279 275 273 273 270 266 260 246 242 229 224 221 221 225 228 227 226 218 216 219 219 234 233 234 200 120 79 69 64 65 68 67 68 74 78 79 86 97 104 102 98 96 96
271 270 268 268 268 265 258 243 237 228 222 220 219 221 222 222 221 215 209 214 209 215 222 233 191 127 100 87 78 74 75 78 77 79 84 87 91 95 98 97 97 97 98
270 272 270 269 263 263 253 236 228 226 225 224 221 220 219 219 219 215 208 211 208 208 205 210 200 147 116 96 92 90 85 86 89 88 89 91 94 95 97 96 96 99 104
255 262 266 271 266 261 248 223 220 219 220 218 219 219 215 215 214 211 210 207 208 204 203 199 189 166 136 116 101 95 94 96 97 99 99 97 96 96 95 97 102 106 106
254 254 260 257 258 250 243 218 221 218 216 216 218 219 218 221 219 217 211 205 207 204 202 196 187 173 155 138 123 110 101 100 104 107 107 105 102 102 103 104 105 105 107
245 252 254 253 249 243 232 215 220 220 219 219 218 217 216 219 219 214 209 205 204 206 199 198 188 178 164 152 141 128 119 115 111 111 112 111 110 108 106 105 103 105 107
246 246 248 245 243 236 232 215 213 224 224 220 217 215 214 217 214 210 207 206 206 206 207 200 193 183 171 163 158 147 136 132 128 121 117 115 112 109 106 104 102 107 111
246 245 244 240 237 232 225 218 222 230 227 219 214 214 216 220 216 212 211 208 209 208 205 206 200 192 183 174 167 160 153 146 142 139 133 130 128 123 117 117 117 118 119
245 243 236 229 230 231 228 221 226 229 221 210 214 217 215 218 217 212 211 212 211 212 210 204 203 200 193 184 177 172 166 161 155 149 143 138 135 129 125 125 125 127 128
238 240 232 227 224 226 223 221 223 221 214 212 218 220 219 221 222 216 212 212 213 211 212 209 206 203 200 194 188 182 178 174 170 165 159 151 146 140 135 134 130 128 126
Wind_Speed_850mb
53 62 61 56 53 53 51 48 47 52 53 52 50 49 49 48 48 46 47 45 42 40 37 36 39 41 46 47 50 53 59 62 82 91 75 76 83 82 77 78 77 70 70
45 55 64 72 63 64 62 58 56 57 58 54 51 49 48 46 44 42 42 39 38 35 33 36 42 44 47 49 52 55 60 60 70 92 83 85 82 78 78 77 79 61 62
52 52 54 65 77 80 74 69 65 66 63 58 52 48 47 44 42 38 38 36 34 33 36 40 43 45 49 51 51 56 58 58 65 77 87 80 75 67 68 70 65 61 59
61 61 60 59 68 80 87 81 76 73 70 61 53 48 45 42 39 37 36 35 34 36 38 44 48 49 52 53 55 59 59 64 69 73 78 78 73 67 60 59 57 51 54
69 70 70 72 69 72 79 89 84 80 75 63 54 47 44 40 37 36 35 36 37 40 43 44 45 46 49 51 54 52 57 67 69 71 79 72 67 64 51 50 55 47 38
71 75 78 81 81 74 75 81 86 84 77 67 56 47 43 40 35 33 36 39 40 43 45 42 43 45 44 45 44 48 56 56 64 70 70 67 62 48 49 45 46 46 49
74 78 78 81 83 80 71 73 78 82 77 69 56 48 43 39 35 33 35 37 36 36 40 42 43 42 44 48 50 56 55 52 52 55 62 62 58 50 46 48 46 45 48
77 79 78 81 81 77 71 72 76 79 76 67 56 49 46 39 37 33 35 33 29 28 34 38 45 43 43 48 53 57 48 46 46 46 52 57 55 55 52 50 49 51 49
83 81 67 74 79 73 67 60 61 70 73 66 55 51 48 42 40 35 35 32 27 27 30 36 42 41 43 44 51 52 45 37 38 37 40 44 44 43 44 47 43 38 41
85 78 64 65 71 66 58 56 57 65 67 62 56 53 49 44 43 37 34 33 26 26 25 33 34 36 37 37 43 46 44 33 33 31 31 31 29 26 27 33 35 35 29
84 72 61 62 63 58 50 59 61 64 64 63 57 55 51 46 43 37 32 31 24 24 23 30 31 32 31 32 37 36 35 31 29 31 32 33 26 22 15 12 17 23 25
78 71 61 60 61 54 47 57 63 64 67 63 59 56 50 47 42 37 30 29 21 22 19 26 28 27 27 30 33 29 28 26 28 25 27 31 26 24 17 8 4 9 15
74 71 63 58 62 52 47 51 61 69 68 65 62 57 49 47 41 35 30 28 18 18 15 21 24 24 24 27 28 24 21 23 22 23 24 28 28 23 18 15 12 11 9
72 68 65 59 59 60 46 53 63 71 70 69 63 54 48 48 41 35 30 27 17 11 12 15 17 19 20 21 21 24 22 21 24 26 23 20 19 17 17 18 23 24 23
63 64 60 64 60 58 50 52 62 66 65 67 54 47 48 49 39 33 29 25 18 9 8 11 11 10 13 17 22 25 27 23 25 31 32 30 23 19 20 28 38 47 55
63 59 55 62 54 55 54 50 56 57 63 59 48 46 46 44 41 34 30 27 20 14 8 7 5 3 11 18 24 26 28 31 31 33 32 34 34 36 38 43 49 54 58
59 57 59 59 54 56 57 53 54 59 60 55 53 52 49 43 41 35 33 30 24 20 11 9 6 5 10 18 22 26 30 33 34 35 36 36 37 40 40 41 42 41 40
53 52 55 56 58 56 56 52 52 56 57 57 55 51 46 45 42 37 37 35 29 24 17 12 8 9 11 17 21 24 28 30 31 34 37 37 35 34 34 34 34 38 40
43 48 50 49 50 51 49 46 50 50 53 51 48 50 47 44 44 41 41 37 32 28 22 18 11 10 14 15 19 23 24 27 31 31 34 35 36 34 36 36 36 39 42
45 41 44 49 46 48 49 44 46 50 53 49 50 50 47 48 49 50 48 42 35 32 28 24 18 14 13 14 15 20 23 26 28 30 32 32 34 36 38 39 41 43 45
45 42 42 46 51 47 50 45 38 47 50 48 48 48 48 48 47 48 46 43 38 34 31 27 23 19 17 15 15 17 19 21 25 28 31 32 32 33 37 38 37 35 36
43 44 46 48 46 45 48 45 36 39 45 46 44 43 44 47 46 41 44 44 41 36 32 28 26 24 21 19 17 16 16 17 21 25 28 30 31 31 31 30 30 33 37
45 49 51 50 46 43 42 42 39 39 41 44 45 43 48 50 50 48 48 48 46 42 37 33 30 26 24 21 18 18 18 17 18 21 20 22 24 26 26 26 28 30 33
46 47 52 52 47 42 40 40 39 37 41 44 45 45 45 44 46 50 50 51 51 47 42 36 31 29 25 23 21 19 18 18 18 20 21 19 19 22 21 21 25 26 27
42 44 45 50 50 44 45 48 46 43 44 42 42 44 44 42 42 50 53 55 55 52 47 43 38 33 29 26 23 21 19 19 18 16 17 18 16 19 20 20 22 25 25
41 38 43 47 51 49 45 46 45 46 44 41 42 44 43 42 41 45 56 60 60 57 53 49 44 39 36 32 29 26 23 20 19 17 17 17 14 15 16 17 19 20 21
Wind_Direction_850mb
281 273 273 279 280 274 271 273 280 283 284 284 286 288 294 300 302 303 304 305 302 298 294 291 290 294 288 286 286 287 286 285 285 291 292 295 293 292 286 287 288 288 294
308 291 281 268 271 269 270 270 275 275 276 278 279 283 290 295 297 299 302 302 301 300 299 293 291 289 286 287 287 284 282 281 283 288 291 291 291 292 291 290 294 290 290
325 324 309 285 269 265 268 266 272 272 270 271 274 279 286 292 293 295 298 298 296 297 297 294 297 296 297 299 297 293 293 291 290 290 292 294 295 294 293 291 295 293 293
313 314 318 316 288 274 263 264 264 269 264 265 268 274 281 286 286 287 290 292 292 296 299 297 295 295 298 299 297 295 299 300 298 296 295 296 298 298 296 293 298 298 294
310 312 313 313 311 282 270 261 257 262 258 260 262 268 274 279 278 280 282 285 290 296 297 300 298 298 298 296 296 304 300 294 290 291 292 293 290 293 291 289 291 296 295
300 306 309 310 310 299 276 265 255 254 252 253 256 261 269 273 270 269 278 287 293 296 301 303 302 301 302 301 303 298 296 292 289 284 287 286 292 288 292 289 286 289 299
300 300 308 307 308 304 281 266 253 245 246 248 251 255 262 264 259 267 282 289 295 298 303 307 309 314 316 315 310 311 309 299 293 288 285 286 289 286 284 285 283 281 282
302 298 303 307 308 303 278 267 250 238 240 243 247 250 254 252 250 269 283 286 292 304 308 313 313 318 319 315 313 316 315 311 306 298 293 293 288 285 281 280 278 281 286
305 303 301 304 306 300 279 266 239 231 235 240 243 246 249 243 248 267 278 281 289 301 313 314 312 320 319 319 317 318 321 321 313 311 309 304 296 287 276 270 270 274 285
308 306 298 305 304 296 277 250 233 231 236 240 243 244 244 237 246 264 271 275 288 301 317 311 316 318 320 324 324 325 330 336 330 338 344 336 325 312 292 265 259 255 262
306 301 291 302 300 296 277 248 233 232 236 239 242 243 241 236 242 259 263 270 284 296 315 317 322 322 328 330 337 334 340 345 346 350 357 357 353 348 330 280 254 246 248
300 293 288 297 289 295 280 253 236 233 235 237 241 240 238 236 241 254 253 261 272 291 316 318 322 329 339 343 344 342 350 351 348 351 10 15 20 29 38 76 146 207 227
294 287 283 286 288 284 280 259 239 232 233 234 239 239 237 235 239 245 248 251 256 283 315 321 322 337 349 355 350 1 0 9 2 2 15 27 23 34 49 82 105 137 195
287 283 283 280 286 284 266 258 241 234 230 233 237 237 234 234 236 237 241 245 246 268 305 321 326 338 4 5 7 23 28 23 27 28 16 30 42 47 76 87 102 102 107
284 281 278 280 283 273 265 259 246 236 232 235 238 239 235 234 233 231 236 242 245 241 282 311 320 339 19 29 36 37 40 42 48 48 46 52 64 75 82 103 106 105 100
284 277 269 280 277 264 262 253 246 233 232 232 233 233 229 230 227 224 225 231 235 237 234 261 270 18 54 55 56 55 57 56 60 65 61 65 79 92 101 105 106 103 101
279 275 273 273 270 266 260 246 242 229 224 221 221 225 228 227 226 218 216 219 219 234 233 234 200 120 79 69 64 65 68 67 68 74 78 79 86 97 104 102 98 96 96
271 270 268 268 268 265 258 243 237 228 222 220 219 221 222 222 221 215 209 214 209 215 222 233 191 127 100 87 78 74 75 78 77 79 84 87 91 95 98 97 97 97 98
270 272 270 269 263 263 253 236 228 226 225 224 221 220 219 219 219 215 208 211 208 208 205 210 200 147 116 96 92 90 85 86 89 88 89 91 94 95 97 96 96 99 104
255 262 266 271 266 261 248 223 220 219 220 218 219 219 215 215 214 211 210 207 208 204 203 199 189 166 136 116 101 95 94 96 97 99 99 97 96 96 95 97 102 106 106
254 254 260 257 258 250 243 218 221 218 216 216 218 219 218 221 219 217 211 205 207 204 202 196 187 173 155 138 123 110 101 100 104 107 107 105 102 102 103 104 105 105 107
245 252 254 253 249 243 232 215 220 220 219 219 218 217 216 219 219 214 209 205 204 206 199 198 188 178 164 152 141 128 119 115 111 111 112 111 110 108 106 105 103 105 107
246 246 248 245 243 236 232 215 213 224 224 220 217 215 214 217 214 210 207 206 206 206 207 200 193 183 171 163 158 147 136 132 128 121 117 115 112 109 106 104 102 107 111
246 245 244 240 237 232 225 218 222 230 227 219 214 214 216 220 216 212 211 208 209 208 205 206 200 192 183 174 167 160 153 146 142 139 133 130 128 123 117 117 117 118 119
245 243 236 229 230 231 228 221 226 229 221 210 214 217 215 218 217 212 211 212 211 212 210 204 203 200 193 184 177 172 166 161 155 149 143 138 135 129 125 125 125 127 128
238 240 232 227 224 226 223 221 223 221 214 212 218 220 219 221 222 216 212 212 213 211 212 209 206 203 200 194 188 182 178 174 170 165 159 151 146 140 135 134 130 128 126